Time,TemperatureF,DewpointF,PressureIn,WindDirection,WindDirectionDegrees,WindSpeedMPH,WindSpeedGustMPH,Humidity,HourlyPrecipIn,Conditions,Clouds,dailyrainin,SoftwareType,DateUTC
2013-02-26 00:00:00,35.2,31.8,29.42,North,-999,-999.0,-999.0,87,0.03,,,0.46,meteohub,2013-02-26 06:00:00,
2013-02-26 00:05:00,35.4,32.0,29.40,North,-999,-999.0,-999.0,87,0.03,,,0.00,meteohub,2013-02-26 06:05:00,
2013-02-26 00:10:00,35.4,32.0,29.40,North,-999,-999.0,-999.0,87,0.03,,,0.00,meteohub,2013-02-26 06:10:00,
2013-02-26 00:15:00,35.4,32.0,29.40,North,-999,-999.0,-999.0,87,0.03,,,0.00,meteohub,2013-02-26 06:15:00,
2013-02-26 00:20:00,35.2,31.8,29.40,North,-999,-999.0,-999.0,87,0.03,,,0.00,meteohub,2013-02-26 06:20:00,
2013-02-26 00:25:00,35.2,31.8,29.40,North,-999,-999.0,-999.0,87,0.03,,,0.00,meteohub,2013-02-26 06:25:00,
2013-02-26 00:30:00,35.2,31.8,29.40,North,-999,-999.0,-999.0,87,0.03,,,0.00,meteohub,2013-02-26 06:30:00,
2013-02-26 00:35:00,35.4,32.0,29.40,North,-999,-999.0,-999.0,87,0.06,,,0.03,meteohub,2013-02-26 06:35:00,
2013-02-26 00:40:00,35.4,32.0,29.40,North,-999,-999.0,-999.0,87,0.08,,,0.06,meteohub,2013-02-26 06:40:00,
2013-02-26 00:45:00,35.4,32.0,29.42,North,-999,-999.0,-999.0,87,0.11,,,0.08,meteohub,2013-02-26 06:45:00,
2013-02-26 00:50:00,35.2,31.8,29.42,North,-999,-999.0,-999.0,87,0.11,,,0.08,meteohub,2013-02-26 06:50:00,
2013-02-26 00:55:00,35.1,31.6,29.42,North,-999,-999.0,-999.0,87,0.08,,,0.08,meteohub,2013-02-26 06:55:00,
2013-02-26 01:00:00,35.1,31.6,29.42,North,-999,-999.0,-999.0,87,0.08,,,0.08,meteohub,2013-02-26 07:00:00,
2013-02-26 01:05:00,34.9,31.5,29.42,North,-999,-999.0,-999.0,87,0.08,,,0.08,meteohub,2013-02-26 07:05:00,
2013-02-26 01:10:00,34.9,31.5,29.42,North,-999,-999.0,-999.0,87,0.08,,,0.08,meteohub,2013-02-26 07:10:00,
2013-02-26 01:15:00,34.7,31.3,29.42,North,-999,-999.0,-999.0,87,0.08,,,0.08,meteohub,2013-02-26 07:15:00,
2013-02-26 01:20:00,34.3,30.9,29.42,North,-999,-999.0,-999.0,87,0.08,,,0.08,meteohub,2013-02-26 07:20:00,
2013-02-26 01:25:00,34.3,30.9,29.41,North,-999,-999.0,-999.0,87,0.08,,,0.08,meteohub,2013-02-26 07:25:00,
2013-02-26 01:31:00,34.3,30.9,29.41,North,-999,-999.0,-999.0,87,0.06,,,0.08,meteohub,2013-02-26 07:31:00,
2013-02-26 01:36:00,34.0,30.6,29.42,North,-999,-999.0,-999.0,87,0.03,,,0.08,meteohub,2013-02-26 07:36:00,
2013-02-26 01:41:00,34.0,30.6,29.42,North,-999,-999.0,-999.0,87,0.03,,,0.08,meteohub,2013-02-26 07:41:00,
2013-02-26 01:46:00,34.0,30.6,29.41,North,-999,-999.0,-999.0,87,0.00,,,0.08,meteohub,2013-02-26 07:46:00,
2013-02-26 01:51:00,34.0,30.6,29.41,North,-999,-999.0,-999.0,87,0.00,,,0.08,meteohub,2013-02-26 07:51:00,
2013-02-26 01:56:00,33.8,30.4,29.41,North,-999,-999.0,-999.0,87,0.00,,,0.08,meteohub,2013-02-26 07:56:00,
2013-02-26 02:01:00,33.6,30.2,29.41,North,-999,-999.0,-999.0,87,0.00,,,0.08,meteohub,2013-02-26 08:01:00,
2013-02-26 02:06:00,33.4,30.0,29.41,North,-999,-999.0,-999.0,87,0.00,,,0.08,meteohub,2013-02-26 08:06:00,
2013-02-26 02:11:00,33.4,30.0,29.41,North,-999,-999.0,-999.0,87,0.00,,,0.08,meteohub,2013-02-26 08:11:00,
2013-02-26 02:16:00,33.4,30.0,29.41,North,-999,-999.0,-999.0,87,0.00,,,0.08,meteohub,2013-02-26 08:16:00,
2013-02-26 02:21:00,33.4,30.0,29.41,North,-999,-999.0,-999.0,87,0.00,,,0.08,meteohub,2013-02-26 08:21:00,
2013-02-26 02:26:00,33.4,30.0,29.39,North,-999,-999.0,-999.0,87,0.00,,,0.08,meteohub,2013-02-26 08:26:00,
2013-02-26 02:31:00,33.4,30.0,29.39,North,-999,-999.0,-999.0,87,0.00,,,0.08,meteohub,2013-02-26 08:31:00,
2013-02-26 02:36:00,33.3,29.8,29.39,North,-999,-999.0,-999.0,87,0.00,,,0.08,meteohub,2013-02-26 08:36:00,
2013-02-26 02:41:00,33.3,29.8,29.39,North,-999,-999.0,-999.0,87,0.00,,,0.08,meteohub,2013-02-26 08:41:00,
2013-02-26 02:46:00,33.3,29.8,29.37,North,-999,-999.0,-999.0,87,0.00,,,0.08,meteohub,2013-02-26 08:46:00,
2013-02-26 02:51:00,33.3,30.0,29.37,North,-999,-999.0,-999.0,88,0.00,,,0.08,meteohub,2013-02-26 08:51:00,
2013-02-26 02:56:00,33.3,30.0,29.37,North,-999,-999.0,-999.0,88,0.00,,,0.08,meteohub,2013-02-26 08:56:00,
2013-02-26 03:01:00,33.3,30.0,29.37,North,-999,-999.0,-999.0,88,0.00,,,0.08,meteohub,2013-02-26 09:01:00,
2013-02-26 03:06:00,33.1,29.8,29.37,North,-999,-999.0,-999.0,88,0.00,,,0.08,meteohub,2013-02-26 09:06:00,
2013-02-26 03:11:00,33.3,30.0,29.37,North,-999,-999.0,-999.0,88,0.00,,,0.08,meteohub,2013-02-26 09:11:00,
2013-02-26 03:16:00,33.3,30.0,29.37,North,-999,-999.0,-999.0,88,0.00,,,0.08,meteohub,2013-02-26 09:16:00,
2013-02-26 03:21:00,33.3,30.0,29.37,North,-999,-999.0,-999.0,88,0.00,,,0.08,meteohub,2013-02-26 09:21:00,
2013-02-26 03:26:00,33.3,30.0,29.35,North,-999,-999.0,-999.0,88,0.00,,,0.08,meteohub,2013-02-26 09:26:00,
2013-02-26 03:31:00,33.3,30.0,29.35,North,-999,-999.0,-999.0,88,0.00,,,0.08,meteohub,2013-02-26 09:31:00,
2013-02-26 03:36:00,33.3,30.0,29.35,North,-999,-999.0,-999.0,88,0.00,,,0.08,meteohub,2013-02-26 09:36:00,
2013-02-26 03:41:00,33.3,30.0,29.35,North,-999,-999.0,-999.0,88,0.00,,,0.08,meteohub,2013-02-26 09:41:00,
2013-02-26 03:46:00,33.3,30.0,29.37,North,-999,-999.0,-999.0,88,0.00,,,0.08,meteohub,2013-02-26 09:46:00,
2013-02-26 03:51:00,33.1,30.2,29.37,North,-999,-999.0,-999.0,89,0.00,,,0.08,meteohub,2013-02-26 09:51:00,
2013-02-26 03:56:00,32.9,30.0,29.37,North,-999,-999.0,-999.0,89,0.00,,,0.08,meteohub,2013-02-26 09:56:00,
2013-02-26 04:01:00,32.9,30.0,29.37,North,-999,-999.0,-999.0,89,0.00,,,0.08,meteohub,2013-02-26 10:01:00,
2013-02-26 04:06:00,32.9,30.0,29.35,North,-999,-999.0,-999.0,89,0.00,,,0.08,meteohub,2013-02-26 10:06:00,
2013-02-26 04:11:00,32.9,30.0,29.35,North,-999,-999.0,-999.0,89,0.00,,,0.08,meteohub,2013-02-26 10:11:00,
2013-02-26 04:16:00,32.9,30.0,29.35,North,-999,-999.0,-999.0,89,0.00,,,0.08,meteohub,2013-02-26 10:16:00,
2013-02-26 04:21:00,32.9,30.0,29.35,North,-999,-999.0,-999.0,89,0.00,,,0.08,meteohub,2013-02-26 10:21:00,
2013-02-26 04:26:00,32.7,29.8,29.35,North,-999,-999.0,-999.0,89,0.00,,,0.08,meteohub,2013-02-26 10:26:00,
2013-02-26 04:31:00,32.7,29.8,29.35,North,-999,-999.0,-999.0,89,0.00,,,0.08,meteohub,2013-02-26 10:31:00,
2013-02-26 04:36:00,32.7,29.8,29.35,North,-999,-999.0,-999.0,89,0.00,,,0.08,meteohub,2013-02-26 10:36:00,
2013-02-26 04:41:00,32.7,29.8,29.35,North,-999,-999.0,-999.0,89,0.00,,,0.08,meteohub,2013-02-26 10:41:00,
2013-02-26 04:46:00,32.7,29.8,29.34,North,-999,-999.0,-999.0,89,0.00,,,0.08,meteohub,2013-02-26 10:46:00,
2013-02-26 04:51:00,32.7,29.8,29.34,North,-999,-999.0,-999.0,89,0.00,,,0.08,meteohub,2013-02-26 10:51:00,
2013-02-26 04:56:00,32.7,29.8,29.34,North,-999,-999.0,-999.0,89,0.00,,,0.08,meteohub,2013-02-26 10:56:00,
2013-02-26 05:01:00,32.9,30.0,29.34,North,-999,-999.0,-999.0,89,0.00,,,0.08,meteohub,2013-02-26 11:01:00,
2013-02-26 05:06:00,32.7,29.8,29.34,North,-999,-999.0,-999.0,89,0.00,,,0.08,meteohub,2013-02-26 11:06:00,
2013-02-26 05:11:00,32.7,29.8,29.34,North,-999,-999.0,-999.0,89,0.00,,,0.08,meteohub,2013-02-26 11:11:00,
2013-02-26 05:16:00,32.7,29.8,29.34,North,-999,-999.0,-999.0,89,0.00,,,0.08,meteohub,2013-02-26 11:16:00,
2013-02-26 05:21:00,32.5,29.7,29.34,North,-999,-999.0,-999.0,89,0.00,,,0.08,meteohub,2013-02-26 11:21:00,
2013-02-26 05:26:00,32.5,29.7,29.33,North,-999,-999.0,-999.0,89,0.00,,,0.08,meteohub,2013-02-26 11:26:00,
2013-02-26 05:31:00,32.5,30.0,29.33,North,-999,-999.0,-999.0,90,0.00,,,0.08,meteohub,2013-02-26 11:31:00,
2013-02-26 05:36:00,32.5,30.0,29.33,North,-999,-999.0,-999.0,90,0.00,,,0.08,meteohub,2013-02-26 11:36:00,
2013-02-26 05:41:00,32.5,30.0,29.33,North,-999,-999.0,-999.0,90,0.00,,,0.08,meteohub,2013-02-26 11:41:00,
2013-02-26 05:46:00,32.5,30.0,29.34,North,-999,-999.0,-999.0,90,0.00,,,0.08,meteohub,2013-02-26 11:46:00,
2013-02-26 05:51:00,32.5,30.0,29.34,North,-999,-999.0,-999.0,90,0.00,,,0.08,meteohub,2013-02-26 11:51:00,
2013-02-26 05:56:00,32.5,30.0,29.34,North,-999,-999.0,-999.0,90,0.00,,,0.08,meteohub,2013-02-26 11:56:00,
2013-02-26 06:01:00,32.5,30.0,29.34,North,-999,-999.0,-999.0,90,0.00,,,0.08,meteohub,2013-02-26 12:01:00,
2013-02-26 06:06:00,32.5,30.0,29.35,North,-999,-999.0,-999.0,90,0.00,,,0.08,meteohub,2013-02-26 12:06:00,
2013-02-26 06:11:00,32.5,30.0,29.35,North,-999,-999.0,-999.0,90,0.00,,,0.08,meteohub,2013-02-26 12:11:00,
2013-02-26 06:16:00,32.4,29.8,29.35,North,-999,-999.0,-999.0,90,0.00,,,0.08,meteohub,2013-02-26 12:16:00,
2013-02-26 06:21:00,32.4,29.8,29.35,North,-999,-999.0,-999.0,90,0.00,,,0.08,meteohub,2013-02-26 12:21:00,
2013-02-26 06:26:00,32.5,30.0,29.35,North,-999,-999.0,-999.0,90,0.00,,,0.08,meteohub,2013-02-26 12:26:00,
2013-02-26 06:31:00,32.5,30.0,29.35,North,-999,-999.0,-999.0,90,0.00,,,0.08,meteohub,2013-02-26 12:31:00,
2013-02-26 06:36:00,32.5,30.0,29.35,North,-999,-999.0,-999.0,90,0.00,,,0.08,meteohub,2013-02-26 12:36:00,
2013-02-26 06:41:00,32.5,30.0,29.35,North,-999,-999.0,-999.0,90,0.00,,,0.08,meteohub,2013-02-26 12:41:00,
2013-02-26 06:46:00,32.2,29.7,29.36,North,-999,-999.0,-999.0,90,0.00,,,0.08,meteohub,2013-02-26 12:46:00,
2013-02-26 06:51:00,32.2,29.7,29.36,North,-999,-999.0,-999.0,90,0.00,,,0.08,meteohub,2013-02-26 12:51:00,
2013-02-26 06:56:00,32.2,29.7,29.36,North,-999,-999.0,-999.0,90,0.00,,,0.08,meteohub,2013-02-26 12:56:00,
2013-02-26 07:01:00,32.2,29.7,29.36,North,-999,-999.0,-999.0,90,0.00,,,0.08,meteohub,2013-02-26 13:01:00,
2013-02-26 07:06:00,32.0,29.7,29.38,North,-999,-999.0,-999.0,91,0.00,,,0.08,meteohub,2013-02-26 13:06:00,
2013-02-26 07:11:00,32.2,29.8,29.38,North,-999,-999.0,-999.0,91,0.00,,,0.08,meteohub,2013-02-26 13:11:00,
2013-02-26 07:17:00,32.2,29.8,29.38,North,-999,-999.0,-999.0,91,0.00,,,0.08,meteohub,2013-02-26 13:17:00,
2013-02-26 07:22:00,32.2,29.8,29.38,North,-999,-999.0,-999.0,91,0.00,,,0.08,meteohub,2013-02-26 13:22:00,
2013-02-26 07:27:00,32.2,29.8,29.42,North,-999,-999.0,-999.0,91,0.00,,,0.08,meteohub,2013-02-26 13:27:00,
2013-02-26 07:32:00,32.2,29.8,29.42,North,-999,-999.0,-999.0,91,0.00,,,0.08,meteohub,2013-02-26 13:32:00,
2013-02-26 07:37:00,32.2,29.8,29.42,North,-999,-999.0,-999.0,91,0.00,,,0.08,meteohub,2013-02-26 13:37:00,
2013-02-26 07:42:00,32.5,30.2,29.42,North,-999,-999.0,-999.0,91,0.00,,,0.08,meteohub,2013-02-26 13:42:00,
2013-02-26 07:47:00,32.4,30.0,29.44,North,-999,-999.0,-999.0,91,0.00,,,0.08,meteohub,2013-02-26 13:47:00,
2013-02-26 07:52:00,32.5,30.2,29.43,North,-999,-999.0,-999.0,91,0.00,,,0.08,meteohub,2013-02-26 13:52:00,
2013-02-26 07:57:00,32.5,30.2,29.43,North,-999,-999.0,-999.0,91,0.00,,,0.08,meteohub,2013-02-26 13:57:00,
2013-02-26 08:02:00,32.5,30.2,29.43,North,-999,-999.0,-999.0,91,0.00,,,0.08,meteohub,2013-02-26 14:02:00,
2013-02-26 08:07:00,32.4,30.0,29.40,North,-999,-999.0,-999.0,91,0.00,,,0.08,meteohub,2013-02-26 14:07:00,
2013-02-26 08:12:00,32.5,30.2,29.40,North,-999,-999.0,-999.0,91,0.00,,,0.08,meteohub,2013-02-26 14:12:00,
2013-02-26 08:17:00,32.5,30.2,29.40,North,-999,-999.0,-999.0,91,0.00,,,0.08,meteohub,2013-02-26 14:17:00,
2013-02-26 08:22:00,32.5,30.2,29.40,North,-999,-999.0,-999.0,91,0.00,,,0.08,meteohub,2013-02-26 14:22:00,
2013-02-26 08:27:00,32.5,30.2,29.40,North,-999,-999.0,-999.0,91,0.00,,,0.08,meteohub,2013-02-26 14:27:00,
2013-02-26 08:32:00,32.5,30.2,29.40,North,-999,-999.0,-999.0,91,0.00,,,0.08,meteohub,2013-02-26 14:32:00,
2013-02-26 08:37:00,32.5,30.2,29.40,North,-999,-999.0,-999.0,91,0.00,,,0.08,meteohub,2013-02-26 14:37:00,
2013-02-26 08:42:00,32.7,30.4,29.40,North,-999,-999.0,-999.0,91,0.00,,,0.08,meteohub,2013-02-26 14:42:00,
2013-02-26 08:47:00,32.7,30.4,29.41,North,-999,-999.0,-999.0,91,0.03,,,0.11,meteohub,2013-02-26 14:47:00,
2013-02-26 08:52:00,32.7,30.4,29.41,North,-999,-999.0,-999.0,91,0.03,,,0.11,meteohub,2013-02-26 14:52:00,
2013-02-26 08:57:00,32.9,30.6,29.40,North,-999,-999.0,-999.0,91,0.03,,,0.11,meteohub,2013-02-26 14:57:00,
2013-02-26 09:02:00,32.9,30.6,29.40,North,-999,-999.0,-999.0,91,0.03,,,0.11,meteohub,2013-02-26 15:02:00,
2013-02-26 09:07:00,32.9,30.6,29.41,North,-999,-999.0,-999.0,91,0.03,,,0.11,meteohub,2013-02-26 15:07:00,
2013-02-26 09:12:00,33.3,30.9,29.41,North,-999,-999.0,-999.0,91,0.03,,,0.11,meteohub,2013-02-26 15:12:00,
2013-02-26 09:17:00,33.3,30.9,29.41,North,-999,-999.0,-999.0,91,0.03,,,0.11,meteohub,2013-02-26 15:17:00,
2013-02-26 09:22:00,33.4,31.1,29.41,North,-999,-999.0,-999.0,91,0.03,,,0.11,meteohub,2013-02-26 15:22:00,
2013-02-26 09:27:00,33.4,31.1,29.42,North,-999,-999.0,-999.0,91,0.03,,,0.11,meteohub,2013-02-26 15:27:00,
2013-02-26 09:32:00,33.4,30.7,29.42,North,-999,-999.0,-999.0,90,0.03,,,0.11,meteohub,2013-02-26 15:32:00,
2013-02-26 09:37:00,33.4,30.7,29.42,North,-999,-999.0,-999.0,90,0.03,,,0.11,meteohub,2013-02-26 15:37:00,
2013-02-26 09:42:00,33.4,30.7,29.42,North,-999,-999.0,-999.0,90,0.00,,,0.11,meteohub,2013-02-26 15:42:00,
2013-02-26 09:47:00,33.4,30.7,29.42,North,-999,-999.0,-999.0,90,0.00,,,0.11,meteohub,2013-02-26 15:47:00,
2013-02-26 09:52:00,33.6,30.9,29.42,North,-999,-999.0,-999.0,90,0.00,,,0.11,meteohub,2013-02-26 15:52:00,
2013-02-26 09:57:00,33.4,30.7,29.42,North,-999,-999.0,-999.0,90,0.00,,,0.11,meteohub,2013-02-26 15:57:00,
2013-02-26 10:02:00,33.4,30.7,29.42,North,-999,-999.0,-999.0,90,0.00,,,0.11,meteohub,2013-02-26 16:02:00,
2013-02-26 10:07:00,33.6,30.9,29.44,North,-999,-999.0,-999.0,90,0.00,,,0.11,meteohub,2013-02-26 16:07:00,
2013-02-26 10:12:00,33.4,30.7,29.44,North,-999,-999.0,-999.0,90,0.00,,,0.11,meteohub,2013-02-26 16:12:00,
2013-02-26 10:17:00,33.4,30.7,29.44,North,-999,-999.0,-999.0,90,0.00,,,0.11,meteohub,2013-02-26 16:17:00,
2013-02-26 10:22:00,33.4,30.7,29.44,North,-999,-999.0,-999.0,90,0.00,,,0.11,meteohub,2013-02-26 16:22:00,
2013-02-26 10:27:00,33.4,30.7,29.45,North,-999,-999.0,-999.0,90,0.00,,,0.11,meteohub,2013-02-26 16:27:00,
2013-02-26 10:32:00,33.4,30.7,29.45,North,-999,-999.0,-999.0,90,0.00,,,0.11,meteohub,2013-02-26 16:32:00,
2013-02-26 10:37:00,33.4,30.7,29.45,North,-999,-999.0,-999.0,90,0.00,,,0.11,meteohub,2013-02-26 16:37:00,
2013-02-26 10:42:00,33.6,30.9,29.44,North,-999,-999.0,-999.0,90,0.00,,,0.11,meteohub,2013-02-26 16:42:00,
2013-02-26 10:47:00,33.6,30.9,29.47,North,-999,-999.0,-999.0,90,0.00,,,0.11,meteohub,2013-02-26 16:47:00,
2013-02-26 10:52:00,33.6,30.9,29.47,North,-999,-999.0,-999.0,90,0.00,,,0.11,meteohub,2013-02-26 16:52:00,
2013-02-26 10:57:00,33.6,30.9,29.47,North,-999,-999.0,-999.0,90,0.00,,,0.11,meteohub,2013-02-26 16:57:00,
2013-02-26 11:02:00,33.6,30.9,29.47,North,-999,-999.0,-999.0,90,0.00,,,0.11,meteohub,2013-02-26 17:02:00,
2013-02-26 11:07:00,33.6,30.9,29.48,North,-999,-999.0,-999.0,90,0.00,,,0.11,meteohub,2013-02-26 17:07:00,
2013-02-26 11:12:00,33.6,30.9,29.48,North,-999,-999.0,-999.0,90,0.00,,,0.11,meteohub,2013-02-26 17:12:00,
2013-02-26 11:17:00,34.0,31.3,29.48,North,-999,-999.0,-999.0,90,0.00,,,0.11,meteohub,2013-02-26 17:17:00,
2013-02-26 11:22:00,34.0,31.3,29.48,North,-999,-999.0,-999.0,90,0.00,,,0.11,meteohub,2013-02-26 17:22:00,
2013-02-26 11:27:00,34.0,31.3,29.48,North,-999,-999.0,-999.0,90,0.00,,,0.11,meteohub,2013-02-26 17:27:00,
2013-02-26 11:32:00,33.6,30.7,29.48,North,-999,-999.0,-999.0,89,0.00,,,0.11,meteohub,2013-02-26 17:32:00,
2013-02-26 11:37:00,33.6,30.7,29.48,North,-999,-999.0,-999.0,89,0.00,,,0.11,meteohub,2013-02-26 17:37:00,
2013-02-26 11:42:00,33.6,30.7,29.48,North,-999,-999.0,-999.0,89,0.00,,,0.11,meteohub,2013-02-26 17:42:00,
2013-02-26 11:47:00,34.0,31.1,29.50,North,-999,-999.0,-999.0,89,0.00,,,0.11,meteohub,2013-02-26 17:47:00,
2013-02-26 11:52:00,33.6,30.7,29.50,North,-999,-999.0,-999.0,89,0.00,,,0.11,meteohub,2013-02-26 17:52:00,
2013-02-26 11:57:00,33.8,30.9,29.50,North,-999,-999.0,-999.0,89,0.00,,,0.11,meteohub,2013-02-26 17:57:00,
2013-02-26 12:02:00,33.6,30.7,29.50,North,-999,-999.0,-999.0,89,0.00,,,0.11,meteohub,2013-02-26 18:02:00,
2013-02-26 12:07:00,33.8,30.9,29.50,North,-999,-999.0,-999.0,89,0.00,,,0.11,meteohub,2013-02-26 18:07:00,
2013-02-26 12:12:00,33.6,30.7,29.50,North,-999,-999.0,-999.0,89,0.00,,,0.11,meteohub,2013-02-26 18:12:00,
2013-02-26 12:17:00,33.6,30.7,29.50,North,-999,-999.0,-999.0,89,0.00,,,0.11,meteohub,2013-02-26 18:17:00,
2013-02-26 12:22:00,33.6,30.7,29.50,North,-999,-999.0,-999.0,89,0.00,,,0.11,meteohub,2013-02-26 18:22:00,
2013-02-26 12:27:00,33.4,30.6,29.51,North,-999,-999.0,-999.0,89,0.00,,,0.11,meteohub,2013-02-26 18:27:00,
2013-02-26 12:32:00,33.6,30.7,29.51,North,-999,-999.0,-999.0,89,0.00,,,0.11,meteohub,2013-02-26 18:32:00,
2013-02-26 12:37:00,33.4,30.6,29.51,North,-999,-999.0,-999.0,89,0.00,,,0.11,meteohub,2013-02-26 18:37:00,
2013-02-26 12:42:00,33.6,30.7,29.51,North,-999,-999.0,-999.0,89,0.00,,,0.11,meteohub,2013-02-26 18:42:00,
2013-02-26 12:47:00,33.4,30.6,29.52,North,-999,-999.0,-999.0,89,0.00,,,0.11,meteohub,2013-02-26 18:47:00,
2013-02-26 12:52:00,33.4,30.6,29.52,North,-999,-999.0,-999.0,89,0.00,,,0.11,meteohub,2013-02-26 18:52:00,
2013-02-26 12:57:00,33.4,30.6,29.52,North,-999,-999.0,-999.0,89,0.00,,,0.11,meteohub,2013-02-26 18:57:00,
2013-02-26 13:02:00,33.6,30.7,29.52,North,-999,-999.0,-999.0,89,0.00,,,0.11,meteohub,2013-02-26 19:02:00,
2013-02-26 13:07:00,33.4,30.6,29.52,North,-999,-999.0,-999.0,89,0.00,,,0.11,meteohub,2013-02-26 19:07:00,
2013-02-26 13:12:00,33.4,30.6,29.52,North,-999,-999.0,-999.0,89,0.00,,,0.11,meteohub,2013-02-26 19:12:00,
2013-02-26 13:17:00,33.4,30.6,29.52,North,-999,-999.0,-999.0,89,0.00,,,0.11,meteohub,2013-02-26 19:17:00,
2013-02-26 13:22:00,33.6,30.7,29.52,North,-999,-999.0,-999.0,89,0.00,,,0.11,meteohub,2013-02-26 19:22:00,
2013-02-26 13:27:00,33.3,30.4,29.54,North,-999,-999.0,-999.0,89,0.00,,,0.11,meteohub,2013-02-26 19:27:00,
2013-02-26 13:32:00,33.3,30.4,29.54,North,-999,-999.0,-999.0,89,0.00,,,0.11,meteohub,2013-02-26 19:32:00,
2013-02-26 13:37:00,33.3,30.4,29.54,North,-999,-999.0,-999.0,89,0.00,,,0.11,meteohub,2013-02-26 19:37:00,
2013-02-26 13:42:00,33.3,30.4,29.54,North,-999,-999.0,-999.0,89,0.00,,,0.11,meteohub,2013-02-26 19:42:00,
2013-02-26 13:47:00,33.3,30.4,29.52,North,-999,-999.0,-999.0,89,0.03,,,0.14,meteohub,2013-02-26 19:47:00,
2013-02-26 13:53:00,33.1,30.2,29.52,North,-999,-999.0,-999.0,89,0.03,,,0.14,meteohub,2013-02-26 19:53:00,
2013-02-26 13:58:00,33.3,30.4,29.52,North,-999,-999.0,-999.0,89,0.03,,,0.14,meteohub,2013-02-26 19:58:00,
2013-02-26 14:03:00,33.3,30.4,29.52,North,-999,-999.0,-999.0,89,0.03,,,0.14,meteohub,2013-02-26 20:03:00,
2013-02-26 14:08:00,33.3,30.4,29.55,North,-999,-999.0,-999.0,89,0.03,,,0.14,meteohub,2013-02-26 20:08:00,
2013-02-26 14:13:00,33.3,30.4,29.55,North,-999,-999.0,-999.0,89,0.03,,,0.14,meteohub,2013-02-26 20:13:00,
2013-02-26 14:18:00,33.3,30.4,29.55,North,-999,-999.0,-999.0,89,0.03,,,0.14,meteohub,2013-02-26 20:18:00,
2013-02-26 14:23:00,33.3,30.4,29.55,North,-999,-999.0,-999.0,89,0.03,,,0.14,meteohub,2013-02-26 20:23:00,
2013-02-26 14:28:00,33.3,30.4,29.55,North,-999,-999.0,-999.0,89,0.03,,,0.14,meteohub,2013-02-26 20:28:00,
2013-02-26 14:33:00,33.3,30.4,29.55,North,-999,-999.0,-999.0,89,0.03,,,0.14,meteohub,2013-02-26 20:33:00,
2013-02-26 14:38:00,33.3,30.4,29.55,North,-999,-999.0,-999.0,89,0.03,,,0.14,meteohub,2013-02-26 20:38:00,
2013-02-26 14:43:00,33.1,30.2,29.55,North,-999,-999.0,-999.0,89,0.00,,,0.14,meteohub,2013-02-26 20:43:00,
2013-02-26 14:48:00,32.9,30.0,29.56,North,-999,-999.0,-999.0,89,0.00,,,0.14,meteohub,2013-02-26 20:48:00,
2013-02-26 14:53:00,33.1,30.2,29.56,North,-999,-999.0,-999.0,89,0.00,,,0.14,meteohub,2013-02-26 20:53:00,
2013-02-26 14:58:00,33.3,30.4,29.56,North,-999,-999.0,-999.0,89,0.00,,,0.14,meteohub,2013-02-26 20:58:00,
2013-02-26 15:03:00,33.1,30.2,29.56,North,-999,-999.0,-999.0,89,0.00,,,0.14,meteohub,2013-02-26 21:03:00,
2013-02-26 15:08:00,33.3,30.4,29.57,North,-999,-999.0,-999.0,89,0.00,,,0.14,meteohub,2013-02-26 21:08:00,
2013-02-26 15:13:00,33.1,30.2,29.57,North,-999,-999.0,-999.0,89,0.00,,,0.14,meteohub,2013-02-26 21:13:00,
2013-02-26 15:18:00,33.1,30.2,29.57,North,-999,-999.0,-999.0,89,0.00,,,0.14,meteohub,2013-02-26 21:18:00,
2013-02-26 15:23:00,33.1,30.2,29.57,North,-999,-999.0,-999.0,89,0.00,,,0.14,meteohub,2013-02-26 21:23:00,
2013-02-26 15:28:00,32.9,30.0,29.59,North,-999,-999.0,-999.0,89,0.00,,,0.14,meteohub,2013-02-26 21:28:00,
2013-02-26 15:33:00,32.9,30.0,29.59,North,-999,-999.0,-999.0,89,0.00,,,0.14,meteohub,2013-02-26 21:33:00,
2013-02-26 15:38:00,32.9,30.0,29.59,North,-999,-999.0,-999.0,89,0.00,,,0.14,meteohub,2013-02-26 21:38:00,
2013-02-26 15:43:00,32.9,30.0,29.59,North,-999,-999.0,-999.0,89,0.00,,,0.14,meteohub,2013-02-26 21:43:00,
2013-02-26 15:48:00,33.1,30.2,29.59,North,-999,-999.0,-999.0,89,0.00,,,0.14,meteohub,2013-02-26 21:48:00,
2013-02-26 15:53:00,33.1,30.2,29.59,North,-999,-999.0,-999.0,89,0.00,,,0.14,meteohub,2013-02-26 21:53:00,
2013-02-26 15:58:00,33.3,30.4,29.59,North,-999,-999.0,-999.0,89,0.00,,,0.14,meteohub,2013-02-26 21:58:00,
2013-02-26 16:03:00,33.3,30.4,29.59,North,-999,-999.0,-999.0,89,0.00,,,0.14,meteohub,2013-02-26 22:03:00,
2013-02-26 16:08:00,33.3,30.4,29.61,North,-999,-999.0,-999.0,89,0.00,,,0.14,meteohub,2013-02-26 22:08:00,
2013-02-26 16:14:00,33.3,30.4,29.61,North,-999,-999.0,-999.0,89,0.00,,,0.14,meteohub,2013-02-26 22:14:00,
2013-02-26 16:19:00,33.3,30.4,29.61,North,-999,-999.0,-999.0,89,0.00,,,0.14,meteohub,2013-02-26 22:19:00,
2013-02-26 16:24:00,33.1,30.2,29.61,North,-999,-999.0,-999.0,89,0.00,,,0.14,meteohub,2013-02-26 22:24:00,
2013-02-26 16:29:00,33.1,30.2,29.63,North,-999,-999.0,-999.0,89,0.00,,,0.14,meteohub,2013-02-26 22:29:00,
2013-02-26 16:34:00,33.3,30.4,29.63,North,-999,-999.0,-999.0,89,0.00,,,0.14,meteohub,2013-02-26 22:34:00,
2013-02-26 16:39:00,33.1,30.2,29.63,North,-999,-999.0,-999.0,89,0.00,,,0.14,meteohub,2013-02-26 22:39:00,
2013-02-26 16:44:00,32.7,29.8,29.63,North,-999,-999.0,-999.0,89,0.00,,,0.14,meteohub,2013-02-26 22:44:00,
2013-02-26 16:49:00,32.9,30.0,29.64,North,-999,-999.0,-999.0,89,0.00,,,0.14,meteohub,2013-02-26 22:49:00,
2013-02-26 16:54:00,32.9,30.0,29.64,North,-999,-999.0,-999.0,89,0.00,,,0.14,meteohub,2013-02-26 22:54:00,
2013-02-26 16:59:00,32.9,30.0,29.64,North,-999,-999.0,-999.0,89,0.00,,,0.14,meteohub,2013-02-26 22:59:00,
2013-02-26 17:04:00,32.9,30.0,29.64,North,-999,-999.0,-999.0,89,0.00,,,0.14,meteohub,2013-02-26 23:04:00,
2013-02-26 17:09:00,32.7,29.8,29.68,North,-999,-999.0,-999.0,89,0.00,,,0.14,meteohub,2013-02-26 23:09:00,
2013-02-26 17:14:00,32.7,29.8,29.68,North,-999,-999.0,-999.0,89,0.00,,,0.14,meteohub,2013-02-26 23:14:00,
2013-02-26 17:19:00,32.7,29.8,29.68,North,-999,-999.0,-999.0,89,0.00,,,0.14,meteohub,2013-02-26 23:19:00,
2013-02-26 17:24:00,32.7,29.8,29.68,North,-999,-999.0,-999.0,89,0.00,,,0.14,meteohub,2013-02-26 23:24:00,
2013-02-26 17:29:00,32.7,29.8,29.71,North,-999,-999.0,-999.0,89,0.00,,,0.14,meteohub,2013-02-26 23:29:00,
2013-02-26 17:34:00,32.7,29.8,29.71,North,-999,-999.0,-999.0,89,0.00,,,0.14,meteohub,2013-02-26 23:34:00,
2013-02-26 17:39:00,32.9,30.0,29.71,North,-999,-999.0,-999.0,89,0.00,,,0.14,meteohub,2013-02-26 23:39:00,
2013-02-26 17:44:00,32.7,29.8,29.71,North,-999,-999.0,-999.0,89,0.00,,,0.14,meteohub,2013-02-26 23:44:00,
2013-02-26 17:49:00,32.7,29.8,29.73,North,-999,-999.0,-999.0,89,0.00,,,0.14,meteohub,2013-02-26 23:49:00,
2013-02-26 17:54:00,32.5,29.7,29.73,North,-999,-999.0,-999.0,89,0.00,,,0.14,meteohub,2013-02-26 23:54:00,
2013-02-26 17:59:00,32.5,29.7,29.73,North,-999,-999.0,-999.0,89,0.00,,,0.14,meteohub,2013-02-26 23:59:00,
2013-02-26 18:04:00,32.5,29.7,29.73,North,-999,-999.0,-999.0,89,0.00,,,0.14,meteohub,2013-02-27 00:04:00,
2013-02-26 18:09:00,32.5,29.7,29.74,North,-999,-999.0,-999.0,89,0.00,,,0.14,meteohub,2013-02-27 00:09:00,
2013-02-26 18:14:00,32.5,29.7,29.74,North,-999,-999.0,-999.0,89,0.00,,,0.14,meteohub,2013-02-27 00:14:00,
2013-02-26 18:19:00,32.5,29.7,29.74,North,-999,-999.0,-999.0,89,0.00,,,0.14,meteohub,2013-02-27 00:19:00,
2013-02-26 18:24:00,32.5,29.7,29.74,West,270,5.0,-999.0,89,0.00,,,0.14,meteohub,2013-02-27 00:24:00,
2013-02-26 18:29:00,32.4,29.5,29.75,NW,315,4.0,9.0,89,0.00,,,0.14,meteohub,2013-02-27 00:29:00,
2013-02-26 18:34:00,32.5,29.7,29.75,West,270,7.0,9.0,89,0.00,,,0.14,meteohub,2013-02-27 00:34:00,
2013-02-26 18:39:00,32.5,29.7,29.75,WSW,248,9.0,9.0,89,0.00,,,0.14,meteohub,2013-02-27 00:39:00,
2013-02-26 18:44:00,32.5,29.7,29.72,NW,315,6.0,9.0,89,0.00,,,0.14,meteohub,2013-02-27 00:44:00,
2013-02-26 18:49:00,32.5,29.7,29.72,West,270,9.0,9.0,89,0.00,,,0.14,meteohub,2013-02-27 00:49:00,
2013-02-26 18:54:00,32.5,29.7,29.72,NW,315,5.0,10.0,89,0.00,,,0.14,meteohub,2013-02-27 00:54:00,
2013-02-26 18:59:00,32.4,29.5,29.72,NW,315,9.0,10.0,89,0.00,,,0.14,meteohub,2013-02-27 00:59:00,
2013-02-26 19:04:00,32.4,29.5,29.72,WNW,293,3.0,10.0,89,0.00,,,0.14,meteohub,2013-02-27 01:04:00,
2013-02-26 19:09:00,32.2,29.3,29.73,West,270,7.0,10.0,89,0.00,,,0.14,meteohub,2013-02-27 01:09:00,
2013-02-26 19:14:00,32.2,29.3,29.73,WSW,248,5.0,10.0,89,0.00,,,0.14,meteohub,2013-02-27 01:14:00,
2013-02-26 19:19:00,32.2,29.3,29.73,West,270,9.0,9.0,89,0.00,,,0.14,meteohub,2013-02-27 01:19:00,
2013-02-26 19:24:00,32.2,29.3,29.73,NW,315,6.0,9.0,89,0.00,,,0.14,meteohub,2013-02-27 01:24:00,
2013-02-26 19:29:00,32.2,29.3,29.74,WSW,248,10.0,10.0,89,0.00,,,0.14,meteohub,2013-02-27 01:29:00,
2013-02-26 19:34:00,32.2,29.7,29.74,WNW,293,6.0,9.0,90,0.00,,,0.14,meteohub,2013-02-27 01:34:00,
2013-02-26 19:39:00,32.2,29.7,29.74,WNW,293,4.0,10.0,90,0.00,,,0.14,meteohub,2013-02-27 01:39:00,
2013-02-26 19:44:00,32.2,29.7,29.74,NNW,338,6.0,10.0,90,0.00,,,0.14,meteohub,2013-02-27 01:44:00,
2013-02-26 19:49:00,32.2,29.7,29.74,WSW,248,8.0,8.0,90,0.00,,,0.14,meteohub,2013-02-27 01:49:00,
2013-02-26 19:54:00,32.2,29.7,29.74,South,180,8.0,9.0,90,0.00,,,0.14,meteohub,2013-02-27 01:54:00,
2013-02-26 19:59:00,32.2,29.7,29.74,West,270,3.0,9.0,90,0.00,,,0.14,meteohub,2013-02-27 01:59:00,
2013-02-26 20:04:00,32.2,29.7,29.74,West,270,10.0,10.0,90,0.00,,,0.14,meteohub,2013-02-27 02:04:00,
2013-02-26 20:09:00,32.2,29.7,29.75,WSW,248,11.0,11.0,90,0.00,,,0.14,meteohub,2013-02-27 02:09:00,
2013-02-26 20:14:00,32.2,29.7,29.75,WSW,248,11.0,11.0,90,0.00,,,0.14,meteohub,2013-02-27 02:14:00,
2013-02-26 20:20:00,32.2,29.7,29.75,West,270,2.0,11.0,90,0.00,,,0.14,meteohub,2013-02-27 02:20:00,
2013-02-26 20:25:00,32.2,29.7,29.76,NW,315,6.0,11.0,90,0.00,,,0.14,meteohub,2013-02-27 02:25:00,
2013-02-26 20:30:00,32.2,29.7,29.76,West,270,6.0,9.0,90,0.00,,,0.14,meteohub,2013-02-27 02:30:00,
2013-02-26 20:35:00,32.2,29.7,29.76,WSW,248,8.0,10.0,90,0.00,,,0.14,meteohub,2013-02-27 02:35:00,
2013-02-26 20:40:00,32.4,29.8,29.76,West,270,4.0,10.0,90,0.00,,,0.14,meteohub,2013-02-27 02:40:00,
2013-02-26 20:45:00,32.4,29.8,29.78,West,270,4.0,10.0,90,0.00,,,0.14,meteohub,2013-02-27 02:45:00,
2013-02-26 20:50:00,32.4,29.8,29.78,NW,315,6.0,8.0,90,0.00,,,0.14,meteohub,2013-02-27 02:50:00,
2013-02-26 20:55:00,32.5,30.0,29.78,WNW,293,13.0,13.0,90,0.00,,,0.14,meteohub,2013-02-27 02:55:00,
2013-02-26 21:00:00,32.5,30.0,29.78,West,270,12.0,13.0,90,0.00,,,0.14,meteohub,2013-02-27 03:00:00,
2013-02-26 21:05:00,32.5,30.0,29.79,NW,315,9.0,13.0,90,0.00,,,0.14,meteohub,2013-02-27 03:05:00,
2013-02-26 21:10:00,32.5,30.0,29.79,NW,315,6.0,13.0,90,0.00,,,0.14,meteohub,2013-02-27 03:10:00,
2013-02-26 21:15:00,32.5,30.0,29.79,West,270,5.0,9.0,90,0.00,,,0.14,meteohub,2013-02-27 03:15:00,
2013-02-26 21:20:00,32.5,30.0,29.79,NNE,23,3.0,9.0,90,0.00,,,0.14,meteohub,2013-02-27 03:20:00,
2013-02-26 21:25:00,32.4,29.8,29.79,West,270,4.0,6.0,90,0.00,,,0.14,meteohub,2013-02-27 03:25:00,
2013-02-26 21:30:00,32.5,30.0,29.79,West,270,7.0,7.0,90,0.00,,,0.14,meteohub,2013-02-27 03:30:00,
2013-02-26 21:35:00,32.5,30.0,29.79,NW,315,5.0,9.0,90,0.00,,,0.14,meteohub,2013-02-27 03:35:00,
2013-02-26 21:40:00,32.5,30.0,29.79,NW,315,5.0,9.0,90,0.00,,,0.14,meteohub,2013-02-27 03:40:00,
2013-02-26 21:45:00,32.5,30.0,29.79,NW,315,5.0,9.0,90,0.00,,,0.14,meteohub,2013-02-27 03:45:00,
2013-02-26 21:50:00,32.5,30.0,29.79,NW,315,5.0,5.0,90,0.00,,,0.14,meteohub,2013-02-27 03:50:00,
2013-02-26 21:55:00,32.4,29.8,29.79,North,-999,-999.0,5.0,90,0.00,,,0.14,meteohub,2013-02-27 03:55:00,
2013-02-26 22:00:00,32.5,30.0,29.79,North,-999,-999.0,5.0,90,0.00,,,0.14,meteohub,2013-02-27 04:00:00,
2013-02-26 22:05:00,32.5,30.0,29.80,North,-999,-999.0,-999.0,90,0.00,,,0.14,meteohub,2013-02-27 04:05:00,
2013-02-26 22:10:00,32.5,30.0,29.80,North,-999,-999.0,-999.0,90,0.00,,,0.14,meteohub,2013-02-27 04:10:00,
2013-02-26 22:15:00,32.5,30.0,29.80,North,-999,-999.0,-999.0,90,0.00,,,0.14,meteohub,2013-02-27 04:15:00,
2013-02-26 22:20:00,32.5,30.0,29.80,North,-999,-999.0,-999.0,90,0.00,,,0.14,meteohub,2013-02-27 04:20:00,
2013-02-26 22:25:00,32.5,30.0,29.81,North,-999,-999.0,-999.0,90,0.00,,,0.14,meteohub,2013-02-27 04:25:00,
2013-02-26 22:30:00,32.5,30.0,29.81,North,-999,-999.0,-999.0,90,0.00,,,0.14,meteohub,2013-02-27 04:30:00,
2013-02-26 22:35:00,32.5,30.0,29.81,North,-999,-999.0,-999.0,90,0.00,,,0.14,meteohub,2013-02-27 04:35:00,
2013-02-26 22:40:00,32.4,29.8,29.81,North,-999,-999.0,-999.0,90,0.00,,,0.14,meteohub,2013-02-27 04:40:00,
2013-02-26 22:45:00,32.5,30.0,29.81,North,-999,-999.0,-999.0,90,0.00,,,0.14,meteohub,2013-02-27 04:45:00,
2013-02-26 22:50:00,32.5,30.0,29.81,North,-999,-999.0,-999.0,90,0.00,,,0.14,meteohub,2013-02-27 04:50:00,
2013-02-26 22:55:00,32.5,30.0,29.81,North,-999,-999.0,-999.0,90,0.00,,,0.14,meteohub,2013-02-27 04:55:00,
2013-02-26 23:00:00,32.5,30.0,29.81,North,-999,-999.0,-999.0,90,0.00,,,0.14,meteohub,2013-02-27 05:00:00,
2013-02-26 23:01:00,32.5,30.0,29.81,North,-999,-999.0,-999.0,90,0.00,,,0.14,meteohub,2013-02-27 05:01:00,
2013-02-26 23:06:00,32.5,30.0,29.82,North,-999,-999.0,-999.0,90,0.00,,,0.14,meteohub,2013-02-27 05:06:00,
2013-02-26 23:11:00,32.5,30.0,29.82,North,-999,-999.0,-999.0,90,0.00,,,0.14,meteohub,2013-02-27 05:11:00,
2013-02-26 23:16:00,32.5,30.0,29.82,North,-999,-999.0,-999.0,90,0.00,,,0.14,meteohub,2013-02-27 05:16:00,
2013-02-26 23:21:00,32.5,30.0,29.82,North,-999,-999.0,-999.0,90,0.00,,,0.14,meteohub,2013-02-27 05:21:00,
2013-02-26 23:26:00,32.5,30.0,29.82,North,-999,-999.0,-999.0,90,0.00,,,0.14,meteohub,2013-02-27 05:26:00,
2013-02-26 23:31:00,32.5,30.0,29.82,North,-999,-999.0,-999.0,90,0.00,,,0.14,meteohub,2013-02-27 05:31:00,
2013-02-26 23:36:00,32.5,30.0,29.82,North,-999,-999.0,-999.0,90,0.00,,,0.14,meteohub,2013-02-27 05:36:00,
2013-02-26 23:41:00,32.5,30.0,29.82,North,-999,-999.0,-999.0,90,0.00,,,0.14,meteohub,2013-02-27 05:41:00,
2013-02-26 23:46:00,32.5,30.0,29.82,North,-999,-999.0,-999.0,90,0.00,,,0.14,meteohub,2013-02-27 05:46:00,
2013-02-26 23:51:00,32.5,30.0,29.82,North,-999,-999.0,-999.0,90,0.00,,,0.14,meteohub,2013-02-27 05:51:00,
2013-02-26 23:56:00,32.5,30.0,29.82,North,-999,-999.0,-999.0,90,0.00,,,0.14,meteohub,2013-02-27 05:56:00,